Location: Bailleul
(50.3375°N, 2.8513°E)
Time: 04:47:32
(UTC+00:00)

Cosmos 1980 - Pass Details

Date: 31 October 2021
Orbit: 839 x 847 km, 71.0° (Epoch: 01 December)

Event Time Altitude Azimuth Distance (km) Brightness Sun altitude
Rises 18:20:03 0° 175° (S) 3,378 6.8 -18.6°
Reaches altitude 10° 18:22:44 10° 165° (SSE) 2,449 6.0 -19.0°
Enters shadow 18:26:17 28° 130° (SE) 1,533 4.6 -19.6°
